Flight Track Log - Related Links

Times and Time Zones

All times are in EDT time to prevent confusion due to time zone crossing. See the UAL33 flight status page for this flight to view local times or setup timezone preferences in your user account.

Time Position Orientation Groundspeed Altitude Reporting Facility
EDT Latitude Longitude Course Direction KTS MPH feet Rate Location/Type
Fri 05:23:06 PM 29.9814 -95.3539 158° South 7 8 100  Level FlightAware ADS-B
Fri 05:23:23 PM 29.9715 -95.3479 152° Southeast 145 167 100 833 Level FlightAware ADS-B
Fri 05:23:42 PM 29.9585 -95.3403 153° Southeast 166 191 600 1,826 Climbing FlightAware ADS-B
Fri 05:23:46 PM 29.9551 -95.3394 167° South 168 193 800 2,769 Climbing FlightAware ADS-B
Fri 05:23:55 PM 29.9487 -95.3401 185° South 167 192 1,200 2,308 Climbing FlightAware ADS-B
Fri 05:23:59 PM 29.9458 -95.3415 203° Southwest 171 197 1,300 1,714 Climbing FlightAware ADS-B
Fri 05:24:02 PM 29.9433 -95.3433 212° Southwest 177 204 1,400 1,714 Climbing FlightAware ADS-B
Fri 05:24:06 PM 29.9410 -95.3458 223° Southwest 181 208 1,500 1,714 Climbing FlightAware ADS-B
Fri 05:24:09 PM 29.9393 -95.3481 230° Southwest 188 216 1,600 1,714 Climbing FlightAware ADS-B
Fri 05:24:13 PM 29.9375 -95.3517 240° Southwest 193 222 1,700 1,714 Climbing FlightAware ADS-B
Fri 05:24:16 PM 29.9365 -95.3548 250° West 200 230 1,800 1,200 Climbing FlightAware ADS-B
Fri 05:24:23 PM 29.9355 -95.3625 261° West 212 244 1,900 1,200 Climbing FlightAware ADS-B
Fri 05:24:26 PM 29.9356 -95.3660 272° West 217 250 2,000 1,714 Climbing FlightAware ADS-B
Fri 05:24:30 PM 29.9364 -95.3710 280° West 225 259 2,100 1,800 Climbing FlightAware ADS-B
Fri 05:24:36 PM 29.9383 -95.3768 291° West 232 267 2,300 2,182 Climbing FlightAware ADS-B
Fri 05:24:41 PM 29.9418 -95.3834 301° West 244 281 2,500 2,000 Climbing FlightAware ADS-B
Fri 05:24:45 PM 29.9441 -95.3864 312° West 251 289 2,600 2,250 Climbing FlightAware ADS-B
Fri 05:24:49 PM 29.9476 -95.3901 318° Northwest 257 296 2,800 3,429 Climbing FlightAware ADS-B
Fri 05:24:52 PM 29.9514 -95.3932 325° Northwest 262 302 3,000 2,727 Climbing FlightAware ADS-B
Fri 05:25:00 PM 29.9597 -95.3979 337° Northwest 273 314 3,300 2,143 Climbing FlightAware ADS-B
Fri 05:25:06 PM 29.9671 -95.4001 347° North 276 318 3,500 2,400 Climbing FlightAware ADS-B
Fri 05:25:10 PM 29.9722 -95.4010 351° North 278 320 3,700 1,412 Climbing FlightAware ADS-B
Fri 05:25:23 PM 29.9892 -95.4031 354° North 280 322 3,900 643 Climbing FlightAware ADS-B
Fri 05:25:38 PM 30.0088 -95.4051 355° North 280 322 4,000  Climbing FlightAware ADS-B
Fri 05:26:09 PM 30.0488 -95.4093 355° North 280 322 3,900 1,558 Descending FlightAware ADS-B
Fri 05:26:55 PM 30.1085 -95.4157 355° North 283 326 6,000 3,097 Climbing FlightAware ADS-B
Fri 05:27:11 PM 30.1303 -95.4179 355° North 286 329 7,100 3,857 Climbing FlightAware ADS-B
Fri 05:27:37 PM 30.1640 -95.4215 350° North 288 331 8,700 3,677 Climbing FlightAware ADS-B
Fri 05:27:42 PM 30.1707 -95.4233 347° North 288 331 9,000 3,474 Climbing FlightAware ADS-B
Fri 05:27:56 PM 30.1881 -95.4310 336° Northwest 287 330 9,800 2,717 Climbing FlightAware ADS-B
Fri 05:29:28 PM 30.3132 -95.5106 331° Northwest 349 402 13,800 2,880 Climbing FlightAware ADS-B
Fri 05:30:01 PM 30.3590 -95.5395 331° Northwest 345 397 15,800 2,884 Climbing FlightAware ADS-B
Fri 05:31:37 PM 30.4986 -95.6287 331° Northwest 372 428 20,000 2,500 Climbing FlightAware ADS-B
Fri 05:32:37 PM 30.5936 -95.6832 335° Northwest 383 441 22,300 2,440 Climbing FlightAware ADS-B
Fri 05:33:08 PM 30.6432 -95.7096 335° Northwest 383 441 23,700 2,459 Climbing FlightAware ADS-B
Fri 05:33:38 PM 30.6921 -95.7357 335° Northwest 387 445 24,800 2,022 Climbing FlightAware ADS-B
Fri 05:34:40 PM 30.7931 -95.7897 335° Northwest 397 457 26,800 1,839 Climbing FlightAware ADS-B
Fri 05:35:42 PM 30.8981 -95.8461 335° Northwest 409 471 28,600 1,761 Climbing FlightAware ADS-B
Fri 05:36:12 PM 30.9507 -95.8745 335° Northwest 414 476 29,500 1,600 Climbing FlightAware ADS-B
Fri 05:36:42 PM 31.0033 -95.9028 335° Northwest 420 483 30,200 1,487 Climbing FlightAware ADS-B
Fri 05:38:05 PM 31.1538 -95.9745 345° North 434 499 32,300 1,448 Climbing FlightAware ADS-B
Fri 05:39:07 PM 31.2791 -96.0040 349° North 445 512 33,700 1,215 Climbing FlightAware ADS-B
Fri 05:40:43 PM 31.4750 -96.0500 349° North 459 528 35,500 1,095 Climbing FlightAware ADS-B
Fri 05:41:13 PM 31.5394 -96.0651 349° North 466 536 36,000 943 Climbing FlightAware ADS-B
Fri 05:41:53 PM 31.6238 -96.0849 349° North 472 543 36,600 1,050 Climbing FlightAware ADS-B
Fri 05:43:13 PM 31.7960 -96.1250 349° North 474 545 38,100 1,146 Climbing FlightAware ADS-B
Fri 05:43:22 PM 31.8156 -96.1302 347° North 473 544 38,300 450 Climbing FlightAware ADS-B
Fri 05:45:13 PM 32.0520 -96.1860 349° North 463 533 39,000 271 Climbing FlightAware ADS-B
Fri 05:45:57 PM 32.1441 -96.2081 349° North 464 534 39,000  Level FlightAware ADS-B
Fri 05:46:12 PM 32.1753 -96.2139 351° North 461 531 39,000  Level FlightAware ADS-B
Fri 05:47:12 PM 32.3038 -96.2193 360° North 459 528 39,000  Level FlightAware ADS-B
Fri 05:48:02 PM 32.4090 -96.2210 359° North 461 531 39,000  Level FlightAware ADS-B
Fri 05:48:28 PM 32.4651 -96.2264 355° North 460 529 39,000  Level FlightAware ADS-B
Fri 05:49:18 PM 32.5590 -96.2630 342° North 450 518 39,000  Level FlightAware ADS-B
Fri 05:49:58 PM 32.6410 -96.3010 339° North 452 520 39,000  Level FlightAware ADS-B
Fri 05:50:41 PM 32.7230 -96.3390 339° North 454 522 39,000  Level FlightAware ADS-B
Fri 05:51:18 PM 32.7970 -96.3730 339° North 453 521 39,000  Level FlightAware ADS-B
Fri 05:51:58 PM 32.8750 -96.4090 339° North 450 518 39,000  Level FlightAware ADS-B
Fri 05:52:41 PM 32.9600 -96.4430 341° North 452 520 39,000  Level FlightAware ADS-B
Fri 05:53:20 PM 33.0390 -96.4710 343° North 452 520 39,000  Level FlightAware ADS-B
Fri 05:54:04 PM 33.1260 -96.5010 344° North 455 524 39,000  Level FlightAware ADS-B
Fri 05:54:46 PM 33.2100 -96.5310 343° North 449 517 39,000  Level FlightAware ADS-B
Fri 05:55:28 PM 33.2920 -96.5700 338° Northwest 448 516 39,000  Level FlightAware ADS-B
Fri 05:56:09 PM 33.3680 -96.6110 336° Northwest 449 517 39,000  Level FlightAware ADS-B
Fri 05:56:52 PM 33.4510 -96.6540 337° Northwest 450 518 39,000  Level FlightAware ADS-B
Fri 05:57:34 PM 33.5310 -96.6970 336° Northwest 448 516 39,000  Level FlightAware ADS-B
Fri 05:58:13 PM 33.6030 -96.7430 332° Northwest 447 514 39,000  Level FlightAware ADS-B
Fri 05:58:58 PM 33.6860 -96.7900 335° Northwest 447 514 39,000  Level FlightAware ADS-B
Fri 05:59:26 PM 33.7440 -96.8090 345° North 455 524 39,000  Level FlightAware ADS-B
Fri 05:59:54 PM 33.8010 -96.8000 North 469 540 39,000  Level FlightAware ADS-B
Fri 06:00:35 PM 33.8850 -96.7660 19° North 468 539 39,000  Level FlightAware ADS-B
Fri 06:01:20 PM 33.9730 -96.7310 18° North 470 541 39,000  Level FlightAware ADS-B
Fri 06:02:00 PM 34.0590 -96.6910 21° North 477 549 39,000  Level FlightAware ADS-B
Fri 06:02:44 PM 34.1480 -96.6370 27° Northeast 478 550 39,000  Level FlightAware ADS-B
Fri 06:03:16 PM 34.2110 -96.5970 28° Northeast 480 552 39,000  Level FlightAware ADS-B
Fri 06:03:58 PM 34.2900 -96.5420 30° Northeast 484 557 39,000  Level FlightAware ADS-B
Fri 06:04:40 PM 34.3750 -96.4840 29° Northeast 484 557 39,000  Level FlightAware ADS-B
Fri 06:05:16 PM 34.4450 -96.4350 30° Northeast 483 556 39,000  Level FlightAware ADS-B
Fri 06:05:59 PM 34.5260 -96.3790 30° Northeast 482 555 39,000  Level FlightAware ADS-B
Fri 06:06:39 PM 34.6030 -96.3170 34° Northeast 493 567 39,000  Level FlightAware ADS-B
Fri 06:07:21 PM 34.6810 -96.2540 34° Northeast 487 560 39,000  Level FlightAware ADS-B
Fri 06:08:06 PM 34.7670 -96.1890 32° Northeast 485 558 39,000  Level FlightAware ADS-B
Fri 06:08:47 PM 34.8460 -96.1300 32° Northeast 486 559 39,000  Level FlightAware ADS-B
Fri 06:09:28 PM 34.9240 -96.0720 31° Northeast 486 559 39,000  Level FlightAware ADS-B
Fri 06:10:07 PM 34.9990 -96.0130 33° Northeast 492 566 39,000  Level FlightAware ADS-B
Fri 06:10:45 PM 35.0560 -95.9300 50° Northeast 514 592 39,000  Level FlightAware ADS-B
Fri 06:11:30 PM 35.0920 -95.8060 70° East 530 610 39,000  Level FlightAware ADS-B
Fri 06:12:17 PM 35.1160 -95.6730 78° East 532 612 39,000  Level FlightAware ADS-B
Fri 06:12:54 PM 35.1340 -95.5810 77° East 532 612 39,000  Level FlightAware ADS-B
Fri 06:13:42 PM 35.1630 -95.4230 77° East 39,000  Level FlightAware ADS-B
Fri 06:14:35 PM 35.1920 -95.2670 77° East 528 608 39,000  Level FlightAware ADS-B
Fri 06:15:20 PM 35.2160 -95.1400 77° East 39,000  Level FlightAware ADS-B
Fri 06:16:43 PM 35.2620 -94.8950 77° East 531 611 39,000  Level FlightAware ADS-B
Fri 06:17:20 PM 35.2830 -94.7860 77° East 535 616 39,000  Level FlightAware ADS-B
Fri 06:18:02 PM 35.3070 -94.6610 77° East 534 615 39,000  Level FlightAware ADS-B
Fri 06:18:45 PM 35.3310 -94.5390 76° East 533 613 39,000 136 Level FlightAware ADS-B
Fri 06:19:30 PM 35.3560 -94.4090 77° East 533 613 39,200 593 Climbing FlightAware ADS-B
Fri 06:20:06 PM 35.3780 -94.2980 76° East 532 612 39,800 1,000 Climbing FlightAware ADS-B
Fri 06:20:54 PM 35.4140 -94.1620 72° East 520 598 40,600 818 Climbing FlightAware ADS-B
Fri 06:21:34 PM 35.4650 -94.0640 57° Northeast 512 589 41,000 286 Climbing FlightAware ADS-B
Fri 06:22:18 PM 35.5430 -93.9810 41° Northeast 503 579 41,000  Level FlightAware ADS-B
Fri 06:22:58 PM 35.6170 -93.9140 36° Northeast 502 578 41,000  Level FlightAware ADS-B
Fri 06:23:42 PM 35.6980 -93.8400 37° Northeast 499 574 41,000  Level FlightAware ADS-B
Fri 06:24:22 PM 35.7730 -93.7720 36° Northeast 501 577 41,000  Level FlightAware ADS-B
Fri 06:25:06 PM 35.8550 -93.6970 37° Northeast 502 578 41,000  Level FlightAware ADS-B
Fri 06:25:48 PM 35.9340 -93.6240 37° Northeast 501 577 41,000  Level FlightAware ADS-B
Fri 06:26:28 PM 36.0080 -93.5570 36° Northeast 502 578 41,000  Level FlightAware ADS-B
Fri 06:27:08 PM 36.0830 -93.4880 37° Northeast 501 577 41,000  Level FlightAware ADS-B
Fri 06:27:52 PM 36.1650 -93.4120 37° Northeast 498 573 41,000  Level FlightAware ADS-B
Fri 06:28:36 PM 36.2460 -93.3370 37° Northeast 501 577 41,000  Level FlightAware ADS-B
Fri 06:29:18 PM 36.3260 -93.2740 32° Northeast 490 564 41,000  Level FlightAware ADS-B
Fri 06:29:58 PM 36.4130 -93.2490 13° North 476 548 41,000  Level FlightAware ADS-B
Fri 06:30:41 PM 36.5060 -93.2330 North 476 548 41,000  Level FlightAware ADS-B
Fri 06:31:22 PM 36.5960 -93.2180 North 475 547 41,000  Level FlightAware ADS-B
Fri 06:32:06 PM 36.6940 -93.2020 North 475 547 41,000  Level FlightAware ADS-B
Fri 06:32:46 PM 36.7800 -93.1870 North 476 548 41,000  Level FlightAware ADS-B
Fri 06:33:30 PM 36.8760 -93.1710 North 477 549 41,000  Level FlightAware ADS-B
Fri 06:34:10 PM 36.9640 -93.1560 North 479 551 41,000  Level FlightAware ADS-B
Fri 06:34:54 PM 37.0600 -93.1390 North 481 554 41,000  Level FlightAware ADS-B
Fri 06:35:34 PM 37.1490 -93.1240 North 482 555 41,000  Level FlightAware ADS-B
Fri 06:36:18 PM 37.2460 -93.1080 North 484 557 41,000  Level FlightAware ADS-B
Fri 06:37:02 PM 37.3440 -93.0910 North 486 559 41,000  Level FlightAware ADS-B
Fri 06:37:42 PM 37.4330 -93.0750 North 488 562 41,000  Level FlightAware ADS-B
Fri 06:38:26 PM 37.5330 -93.0580 North 489 563 41,000  Level FlightAware ADS-B
Fri 06:39:08 PM 37.6260 -93.0420 North 489 563 41,000  Level FlightAware ADS-B
Fri 06:39:48 PM 37.7160 -93.0260 North 488 562 41,000  Level FlightAware ADS-B
Fri 06:40:32 PM 37.8140 -93.0090 North 489 563 41,000  Level FlightAware ADS-B
Fri 06:41:13 PM 37.9050 -92.9930 North 490 564 41,000  Level FlightAware ADS-B
Fri 06:41:52 PM 37.9940 -92.9780 North 493 567 41,000  Level FlightAware ADS-B
Fri 06:42:27 PM 38.0700 -92.9650 North 494 568 41,000  Level FlightAware ADS-B
Fri 06:43:09 PM 38.1680 -92.9470 North 493 567 41,000  Level FlightAware ADS-B
Fri 06:43:49 PM 38.2540 -92.9320 North 493 567 41,000  Level FlightAware ADS-B
Fri 06:44:35 PM 38.3620 -92.9130 North 495 570 41,000  Level FlightAware ADS-B
Fri 06:45:17 PM 38.4550 -92.8970 North 494 568 41,000  Level FlightAware ADS-B
Fri 06:45:58 PM 38.5490 -92.8800 North 494 568 41,000  Level FlightAware ADS-B
Fri 06:46:43 PM 38.6530 -92.8620 North 489 563 41,000  Level FlightAware ADS-B
Fri 06:47:30 PM 38.7580 -92.8430 North 492 566 41,000  Level FlightAware ADS-B
Fri 06:48:12 PM 38.8530 -92.8260 North 493 567 41,000  Level FlightAware ADS-B
Fri 06:48:56 PM 38.9530 -92.8080 North 498 573 41,000  Level FlightAware ADS-B
Fri 06:49:28 PM 39.0250 -92.7950 North 498 573 41,000  Level FlightAware ADS-B
Fri 06:50:14 PM 39.1300 -92.7760 North 498 573 41,000  Level FlightAware ADS-B
Fri 06:50:54 PM 39.2200 -92.7580 North 500 575 41,000  Level FlightAware ADS-B
Fri 06:51:34 PM 39.3080 -92.7060 25° Northeast 516 594 41,000  Level FlightAware ADS-B
Fri 06:52:16 PM 39.3850 -92.6280 38° Northeast 518 596 41,000  Level FlightAware ADS-B
Fri 06:53:00 PM 39.4680 -92.5420 39° Northeast 519 597 41,000  Level FlightAware ADS-B
Fri 06:53:40 PM 39.5430 -92.4660 38° Northeast 518 596 41,000  Level FlightAware ADS-B
Fri 06:54:22 PM 39.6230 -92.3830 39° Northeast 520 598 41,000  Level FlightAware ADS-B
Fri 06:55:08 PM 39.7090 -92.2940 39° Northeast 522 601 41,000  Level FlightAware ADS-B
Fri 06:56:03 PM 39.8050 -92.1950 38° Northeast 521 600 41,000  Level FlightAware ADS-B
Fri 06:56:46 PM 39.8950 -92.1010 39° Northeast 524 603 41,000  Level FlightAware ADS-B
Fri 06:57:26 PM 39.9690 -92.0230 39° Northeast 525 604 41,000  Level FlightAware ADS-B
Fri 06:58:09 PM 40.0470 -91.9410 39° Northeast 526 605 41,000 -81 Level FlightAware ADS-B
Fri 06:58:40 PM 40.1070 -91.8780 39° Northeast 524 603 40,900 -701 Descending FlightAware ADS-B
Fri 06:59:26 PM 40.1940 -91.7860 39° Northeast 521 600 40,100 -1,256 Descending FlightAware ADS-B
Fri 07:00:06 PM 40.2680 -91.7080 39° Northeast 524 603 39,100 -1,537 Descending FlightAware ADS-B
Fri 07:00:48 PM 40.3460 -91.6260 39° Northeast 531 611 38,000 -2,023 Descending FlightAware ADS-B
Fri 07:01:32 PM 40.4330 -91.5330 39° Northeast 536 617 36,200 -2,850 Descending FlightAware ADS-B
Fri 07:02:08 PM 40.5050 -91.4550 39° Northeast 548 631 34,200 -2,233 Descending FlightAware ADS-B
Fri 07:02:58 PM 40.5790 -91.3260 53° Northeast 541 623 33,000 -809 Descending FlightAware ADS-B
Fri 07:03:37 PM 40.6210 -91.2040 66° East 545 627 33,000  Level FlightAware ADS-B
Fri 07:04:19 PM 40.6650 -91.0770 65° Northeast 549 632 33,000  Level FlightAware ADS-B
Fri 07:05:01 PM 40.7080 -90.9510 66° East 551 634 33,000 -279 Level FlightAware ADS-B
Fri 07:05:45 PM 40.7530 -90.8190 66° East 548 631 32,600 -940 Descending FlightAware ADS-B
Fri 07:06:24 PM 40.7930 -90.6990 66° East 542 624 31,700 -1,407 Descending FlightAware ADS-B
Fri 07:07:06 PM 40.8360 -90.5710 66° East 539 620 30,700 -1,390 Descending FlightAware ADS-B
Fri 07:07:46 PM 40.8760 -90.4530 66° East 533 613 29,800 -1,256 Descending FlightAware ADS-B
Fri 07:08:32 PM 40.9210 -90.3190 66° East 524 603 28,900 -1,256 Descending FlightAware ADS-B
Fri 07:09:12 PM 40.9600 -90.2000 67° East 518 596 28,000 -1,214 Descending FlightAware ADS-B
Fri 07:09:56 PM 41.0010 -90.0760 66° East 510 587 27,200 -1,143 Descending FlightAware ADS-B
Fri 07:10:36 PM 41.0390 -89.9600 66° East 504 580 26,400 -1,244 Descending FlightAware ADS-B
Fri 07:11:18 PM 41.0760 -89.8450 67° East 498 573 25,500 -1,186 Descending FlightAware ADS-B
Fri 07:12:02 PM 41.1170 -89.7210 66° East 474 545 24,700 -975 Descending FlightAware ADS-B
Fri 07:12:38 PM 41.1470 -89.6280 67° East 457 526 24,200 -1,286 Descending FlightAware ADS-B
Fri 07:13:26 PM 41.1910 -89.5120 63° Northeast 444 511 22,900 -1,867 Descending FlightAware ADS-B
Fri 07:14:08 PM 41.2320 -89.4100 62° Northeast 446 513 21,400 -2,154 Descending FlightAware ADS-B
Fri 07:14:44 PM 41.2670 -89.3230 62° Northeast 433 498 20,100 -2,132 Descending FlightAware ADS-B
Fri 07:15:24 PM 41.3040 -89.2310 62° Northeast 417 480 18,700 -1,786 Descending FlightAware ADS-B
Fri 07:16:08 PM 41.3260 -89.1300 74° East 416 479 17,600 -1,500 Descending FlightAware ADS-B
Fri 07:16:48 PM 41.3280 -89.0210 89° East 403 464 16,600 -1,556 Descending FlightAware ADS-B
Fri 07:17:29 PM 41.3300 -88.9240 88° East 397 457 15,500 -1,500 Descending FlightAware ADS-B
Fri 07:18:12 PM 41.3340 -88.8190 87° East 377 434 14,500 -1,525 Descending FlightAware ADS-B
Fri 07:18:28 PM 41.3440 -88.7860 68° East 372 428 14,000 -1,636 Descending FlightAware ADS-B
Fri 07:18:56 PM 41.3760 -88.7450 44° Northeast 363 418 13,300 -1,650 Descending FlightAware ADS-B
Fri 07:19:08 PM 41.3940 -88.7340 25° Northeast 359 413 12,900 -1,714 Descending FlightAware ADS-B
Fri 07:19:52 PM 41.4680 -88.7180 North 369 425 11,700 -1,417 Descending FlightAware ADS-B
Fri 07:20:20 PM 41.5140 -88.6870 27° Northeast 378 435 11,200 -609 Descending FlightAware ADS-B
Fri 07:21:01 PM 41.5560 -88.6120 53° Northeast 380 437 11,000 -146 Descending FlightAware ADS-B
Fri 07:21:42 PM 41.5950 -88.5380 55° Northeast 383 441 11,000  Level FlightAware ADS-B
Fri 07:22:25 PM 41.6410 -88.4490 55° Northeast 387 445 11,000  Level FlightAware ADS-B
Fri 07:23:09 PM 41.6860 -88.3640 55° Northeast 386 444 11,000  Level FlightAware ADS-B
Fri 07:23:48 PM 41.7270 -88.2830 56° Northeast 387 445 11,000  Level FlightAware ADS-B
Fri 07:24:32 PM 41.7700 -88.2010 55° Northeast 387 445 11,000 -286 Level FlightAware ADS-B
Fri 07:25:12 PM 41.8120 -88.1180 56° Northeast 384 442 10,600 -500 Descending FlightAware ADS-B
Fri 07:25:56 PM 41.8480 -88.0320 61° Northeast 351 404 10,300 -395 Descending FlightAware ADS-B
Fri 07:26:28 PM 41.8600 -87.9690 76° East 327 376 10,100 -750 Descending FlightAware ADS-B
Fri 07:26:44 PM 41.8650 -87.9350 79° East 315 362 9,700 -1,867 Descending FlightAware ADS-B
Fri 07:27:13 PM 41.8720 -87.8820 80° East 312 359 8,700 -2,250 Descending FlightAware ADS-B
Fri 07:27:24 PM 41.8760 -87.8590 77° East 310 357 8,200 -2,432 Descending FlightAware ADS-B
Fri 07:27:50 PM 41.8820 -87.8110 80° East 303 349 7,200 -1,800 Descending FlightAware ADS-B
Fri 07:28:04 PM 41.8840 -87.7840 84° East 304 350 7,000 -500 Descending FlightAware ADS-B
Fri 07:28:26 PM 41.8840 -87.7430 90° East 300 345 6,900 -875 Descending FlightAware ADS-B
Fri 07:28:52 PM 41.8840 -87.6950 90° East 301 346 6,300 -1,119 Descending FlightAware ADS-B
Fri 07:29:25 PM 41.8840 -87.6350 90° East 295 339 5,800 -913 Descending FlightAware ADS-B
Fri 07:29:38 PM 41.8840 -87.6140 90° East 293 337 5,600 -1,077 Descending FlightAware ADS-B
Fri 07:30:04 PM 41.8840 -87.5680 90° East 289 333 5,100 -923 Descending FlightAware ADS-B
Fri 07:30:17 PM 41.8840 -87.5420 90° East 292 336 5,000 -128 Descending FlightAware ADS-B
Fri 07:30:51 PM 41.8840 -87.4800 90° East 292 336 5,000  Level FlightAware ADS-B
Fri 07:31:18 PM 41.8830 -87.4350 92° East 275 316 5,000  Level FlightAware ADS-B
Fri 07:31:30 PM 41.8830 -87.4150 90° East 263 303 5,000  Level FlightAware ADS-B
Fri 07:31:56 PM 41.8830 -87.3770 90° East 247 284 5,000  Level FlightAware ADS-B
Fri 07:32:24 PM 41.8830 -87.3320 90° East 248 285 5,000  Level FlightAware ADS-B
Fri 07:32:56 PM 41.8970 -87.2880 67° East 240 276 5,000  Level FlightAware ADS-B
Fri 07:33:08 PM 41.9090 -87.2810 23° Northeast 233 268 5,000  Level FlightAware ADS-B
Fri 07:33:20 PM 41.9210 -87.2790 North 230 265 5,000  Level FlightAware ADS-B
Fri 07:33:28 PM 41.9320 -87.2790 360° North 229 264 5,000  Level FlightAware ADS-B
Fri 07:33:45 PM 41.9460 -87.2840 345° North 222 255 5,000  Level FlightAware ADS-B
Fri 07:33:56 PM 41.9560 -87.2960 318° Northwest 215 247 5,000  Level FlightAware ADS-B
Fri 07:34:13 PM 41.9640 -87.3150 300° West 213 245 5,000  Level FlightAware ADS-B
Fri 07:34:40 PM 41.9690 -87.3480 282° West 211 243 5,000  Level FlightAware ADS-B
Fri 07:35:09 PM 41.9690 -87.3870 270° West 202 232 5,000  Level FlightAware ADS-B
Fri 07:35:35 PM 41.9690 -87.4160 270° West 180 207 5,000  Level FlightAware ADS-B
Fri 07:36:04 PM 41.9690 -87.4480 270° West 186 214 5,000  Level FlightAware ADS-B
Fri 07:36:32 PM 41.9690 -87.4820 270° West 193 222 5,000  Level FlightAware ADS-B
Fri 07:36:58 PM 41.9690 -87.5120 270° West 194 223 5,000  Level FlightAware ADS-B
Fri 07:37:28 PM 41.9690 -87.5480 270° West 193 222 5,000 -171 Level FlightAware ADS-B
Fri 07:38:08 PM 41.9690 -87.5980 270° West 191 220 4,800 -677 Descending FlightAware ADS-B
Fri 07:38:30 PM 41.9690 -87.6250 270° West 193 222 4,300 -1,263 Descending FlightAware ADS-B
Fri 07:38:46 PM 41.9690 -87.6440 270° West 186 214 4,000 -900 Descending FlightAware ADS-B
Fri 07:39:10 PM 41.9690 -87.6690 270° West 169 194 3,700 -808 Descending FlightAware ADS-B
Fri 07:39:38 PM 41.9690 -87.6990 270° West 172 198 3,300 -818 Descending FlightAware ADS-B
Fri 07:39:54 PM 41.9690 -87.7170 270° West 173 199 3,100 -947 Descending FlightAware ADS-B
Fri 07:40:16 PM 41.9690 -87.7400 270° West 170 196 2,700 -875 Descending FlightAware ADS-B
Fri 07:40:42 PM 41.9690 -87.7650 270° West 159 183 2,400 -806 Descending FlightAware ADS-B
Fri 07:41:23 PM 41.9690 -87.8020 270° West 141 162 1,800 -824 Descending FlightAware ADS-B
Fri 07:41:33 PM 41.9690 -87.8120 270° West 143 165 1,700 -750 Descending FlightAware ADS-B
Fri 07:42:03 PM 41.9690 -87.8390 270° West 145 167 1,300 -724 Descending FlightAware ADS-B
Fri 07:42:31 PM 41.9690 -87.8640 270° West 146 168 1,000 -435 Descending FlightAware ADS-B
Fri 07:43:12 PM 41.9690 -87.8960 270° West 147 169 800 -293 Descending FlightAware ADS-B

Login

Don't have an account? Register now (free) for customized features, flight alerts, and more!